Location: Home
(42.5358°N, 72.7383°W)
Time: 01:22:29
(UTC-05:00)

BUGSAT 1 - Visible Passes

Search period start: 27 January 2022 00:00
Search period end: 06 February 2022 00:00
Orbit: 557 x 601 km, 98.1° (Epoch: 26 January)

Date Brightness Start Highest point End Pass type
(mag) Time Alt. Az. Time Alt. Az. Time Alt. Az.
27 Jan ? 04:32:46 10° NE 04:36:21 31° E 04:39:54 10° SSE visible
27 Jan ? 06:08:24 10° NNW 06:11:25 21° WNW 06:14:26 10° WSW visible
28 Jan ? 04:37:18 10° NNE 04:40:59 35° E 04:44:38 10° SSE visible
28 Jan ? 06:13:11 10° NNW 06:16:00 19° WNW 06:18:49 10° WSW visible
29 Jan ? 04:41:51 10° NNE 04:45:37 39° E 04:49:22 10° S visible
29 Jan ? 06:17:58 10° NNW 06:20:35 17° WNW 06:23:11 10° WSW visible
30 Jan ? 04:46:25 10° NNE 04:50:16 44° E 04:54:04 10° S visible
30 Jan ? 06:22:47 10° NNW 06:25:09 15° WNW 06:27:31 10° W visible
31 Jan ? 04:51:00 10° NNE 04:54:53 50° E 04:58:46 10° S visible
31 Jan ? 06:27:38 10° NNW 06:29:44 14° WNW 06:31:49 10° W visible
01 Feb ? 04:55:34 10° NNE 04:59:31 57° E 05:03:26 10° S visible
01 Feb ? 06:32:34 10° NW 06:34:18 13° WNW 06:36:01 10° W visible
02 Feb ? 05:00:10 10° NNE 05:04:08 64° ESE 05:08:06 10° S visible
03 Feb ? 05:04:45 10° NNE 05:08:45 73° ESE 05:12:44 10° S visible
04 Feb ? 05:09:21 10° NNE 05:13:22 82° ESE 05:17:23 10° SSW visible
04 Feb ? 17:37:13 10° WSW 17:38:17 11° W 17:39:20 10° WNW visible
05 Feb ? 05:13:58 10° NNE 05:17:59 88° W 05:21:59 10° SSW visible
